Temperature
16 15 15 14 14 13 13 12 12 12 12 12 12 12 13 13 13 13 13 13 13 13 13 13 13 13 13 13 13 14 14 14 14 13 13 13 14 14 13 13 14 14 14
16 15 15 14 14 13 12 12 12 12 12 12 12 12 12 13 13 13 13 13 13 13 12 13 13 13 13 13 13 13 13 14 13 13 13 13 13 13 13 13 13 13 14
16 15 15 14 14 13 13 12 12 12 12 12 12 12 12 12 13 13 13 12 12 12 12 12 12 13 13 13 13 13 13 13 13 13 13 13 13 13 13 13 13 13 13
16 15 15 14 14 13 13 12 12 12 12 12 12 12 12 12 12 12 12 12 12 12 12 12 12 13 13 13 13 13 13 13 13 13 13 13 12 12 13 13 12 12 12
16 16 15 15 14 14 13 13 12 12 12 12 12 12 12 12 11 11 11 11 12 12 12 12 12 12 12 12 12 13 13 13 13 13 13 12 12 12 12 12 12 12 12
16 16 15 14 14 14 13 13 12 12 12 11 12 12 11 11 11 11 11 11 11 12 12 12 12 12 12 12 12 12 12 12 12 12 12 12 11 11 11 12 11 11 11
16 16 15 14 14 13 13 13 12 12 11 11 12 12 11 11 11 11 11 11 11 12 12 12 12 12 12 11 11 11 12 12 12 12 12 11 11 11 11 11 11 11 10
16 16 15 14 14 13 13 13 12 12 11 11 12 12 12 11 11 11 11 11 11 11 11 11 12 11 11 11 11 11 11 11 11 11 11 11 11 11 11 11 11 11 10
14 15 15 14 14 13 13 13 12 11 11 11 12 12 11 11 11 11 11 11 11 11 11 11 12 12 11 11 11 11 11 11 11 11 11 11 10 10 10 10 10 10 10
12 12 13 14 14 13 13 13 12 12 11 12 12 11 11 11 11 11 11 11 11 11 11 11 11 11 11 11 11 11 11 11 11 11 11 10 10 10 10 10 10 10 9
10 11 12 12 13 13 13 13 12 12 11 12 12 12 11 11 11 11 11 11 11 11 11 11 11 11 11 11 11 11 10 10 10 10 10 10 9 9 9 9 9 9 9
10 10 10 11 12 13 13 12 12 12 11 12 12 12 12 12 12 11 11 11 11 11 11 11 11 10 10 10 10 9 9 9 9 9 9 9 9 9 8 8 8 8 8
9 9 9 9 11 12 13 12 12 12 12 12 12 11 12 12 12 12 11 12 11 11 11 11 10 10 9 9 9 9 9 9 8 8 8 8 8 8 8 8 8 8 8
9 9 8 8 10 11 12 12 12 12 12 12 11 11 11 11 12 12 12 11 11 11 10 10 10 9 9 9 9 9 8 8 8 7 7 7 8 8 8 8 8 7 7
8 8 8 8 9 10 11 12 12 12 12 12 12 12 11 11 11 12 12 11 11 11 10 10 10 9 9 9 9 9 8 8 8 7 7 7 7 7 7 7 7 7 7
8 8 7 8 8 9 11 12 12 12 12 12 12 12 12 12 12 11 11 11 11 11 10 10 10 9 9 9 9 9 8 8 8 7 7 7 7 7 7 7 7 7 6
8 7 7 8 8 9 10 11 12 12 11 11 11 12 12 12 11 11 11 11 11 10 10 10 10 10 10 10 9 9 9 8 8 7 7 7 7 7 7 7 7 7 6
7 7 7 7 8 9 10 11 12 12 12 11 11 11 11 11 11 11 11 10 10 10 10 10 10 10 10 10 9 9 9 9 8 7 7 7 7 7 7 6 6 6 6
7 7 7 7 8 8 10 11 12 12 12 12 11 11 11 11 11 11 10 10 10 10 10 10 10 10 10 10 10 9 9 9 8 8 7 7 7 7 7 7 6 6 6
7 7 7 7 7 8 9 10 11 11 11 11 11 11 11 11 10 10 10 10 10 10 10 10 10 10 10 10 10 9 9 9 8 8 8 7 7 7 7 7 6 6 6
7 7 7 7 7 8 9 10 11 11 11 11 11 12 11 11 11 11 11 11 10 10 10 10 10 10 10 10 10 10 9 9 9 8 8 8 7 7 7 7 6 6 6
6 6 6 7 7 8 9 10 10 11 12 12 12 12 11 11 11 11 11 11 11 10 10 10 10 10 10 10 10 10 10 9 9 9 8 8 8 7 7 7 6 6 6
6 6 6 7 7 8 9 9 10 11 12 12 12 11 11 11 11 11 11 11 11 10 10 10 10 10 10 10 10 10 10 10 9 9 9 9 8 8 8 7 7 6 6
6 6 6 7 8 9 9 9 10 11 12 12 12 12 11 11 11 10 10 10 10 10 10 10 10 10 10 10 10 10 10 10 10 9 9 9 9 8 8 8 7 6 6
6 6 7 7 8 9 10 10 11 11 12 12 12 12 12 11 11 10 10 10 10 10 10 10 10 10 10 10 10 10 10 10 10 10 10 9 9 9 8 8 7 6 6
6 7 7 8 9 10 10 11 11 12 12 12 12 12 12 11 11 11 10 10 10 10 10 10 10 10 10 10 10 10 10 10 10 10 10 10 9 9 9 8 7 6 6
Wind_Speed
6 6 5 4 3 2 3 5 6 7 8 9 9 8 5 3 1 0 1 2 3 3 3 4 5 5 4 3 4 4 3 3 3 2 4 5 7 6 5 6 8 8 9
7 6 6 5 4 4 4 6 6 7 7 7 8 8 6 5 5 4 4 3 4 4 5 6 7 7 6 5 5 5 4 3 4 6 5 6 6 5 5 5 5 7 8
7 7 6 6 6 6 6 6 6 7 7 7 7 7 7 6 7 6 7 6 7 7 8 9 8 9 9 7 7 6 5 6 6 6 4 3 3 3 4 4 5 5 6
8 8 8 8 8 7 6 6 6 6 6 7 6 6 6 6 6 8 9 9 8 8 8 9 8 8 8 8 7 7 8 9 7 6 4 4 4 3 4 4 4 4 4
8 8 9 8 8 7 6 6 5 5 5 5 3 5 6 5 5 8 8 9 9 10 10 10 10 11 11 8 7 7 8 7 6 6 4 5 5 5 5 4 4 4 3
8 9 8 8 8 8 7 6 4 4 3 0 3 5 5 4 6 10 9 9 9 11 10 9 9 9 11 14 15 13 10 7 6 4 3 4 4 4 4 4 4 5 4
9 9 9 9 9 8 7 6 5 3 3 4 4 5 5 5 8 11 11 9 9 9 9 9 9 9 11 10 13 13 12 12 7 5 4 3 3 3 4 5 5 2 1
8 8 9 10 9 8 8 7 6 4 5 5 4 5 6 7 13 14 14 11 10 8 8 9 9 9 8 10 10 10 9 8 7 4 3 2 2 0 1 2 1 2 3
7 7 9 11 11 10 9 8 6 5 5 5 5 6 7 7 13 14 13 9 8 7 7 8 10 10 13 15 12 10 10 9 10 14 13 10 10 9 6 6 6 5 3
13 12 8 9 11 12 10 8 6 6 6 7 6 6 7 6 10 14 13 8 8 6 6 7 11 12 14 14 11 10 10 7 8 10 11 10 8 8 10 6 4 4 2
12 15 13 9 11 11 9 7 7 7 8 8 7 5 5 6 8 12 14 8 8 7 6 4 5 13 14 14 12 8 7 6 7 9 8 7 7 7 8 7 5 4 4
8 12 15 13 11 11 10 9 9 10 10 8 7 5 3 4 6 9 15 13 11 8 7 5 5 11 13 12 10 11 13 10 7 7 7 6 6 5 5 6 6 6 4
6 8 11 15 11 9 11 11 9 10 9 8 7 7 5 4 4 8 14 17 14 7 6 9 8 10 10 7 10 12 10 7 7 6 5 4 3 3 4 5 7 6 7
6 7 8 12 12 10 10 11 11 11 11 10 9 8 6 5 5 5 7 10 11 8 7 7 7 6 6 5 7 7 5 6 6 5 3 3 4 5 5 5 5 5 6
7 7 8 9 11 11 12 12 14 13 14 12 11 11 11 9 10 14 12 9 8 8 7 4 2 2 3 3 4 4 4 5 5 4 5 5 5 5 4 4 4 4 5
7 7 8 8 9 9 11 10 14 13 18 19 18 15 13 14 18 18 17 17 16 16 8 4 3 3 4 5 5 3 3 5 4 4 4 4 4 4 3 4 4 4 4
8 8 8 8 9 9 10 12 10 8 13 17 19 20 16 18 21 20 18 17 16 15 5 4 4 5 5 6 6 5 4 4 4 4 4 4 4 3 2 2 3 4 4
9 10 10 9 9 8 10 12 12 12 11 8 10 15 18 20 22 20 18 12 7 6 4 5 5 5 5 7 8 6 5 5 4 4 3 3 3 3 2 1 2 2 3
9 7 8 8 8 8 9 11 11 13 12 9 5 5 12 16 18 19 18 8 9 7 5 5 5 5 5 7 9 8 7 6 5 5 4 4 4 3 2 1 2 4 4
9 13 11 8 8 8 8 9 10 11 11 10 10 8 9 8 7 10 8 6 8 7 7 7 6 6 6 8 9 8 7 6 6 5 5 5 4 3 4 4 4 4 3
8 9 13 10 8 8 8 10 11 12 12 11 10 12 18 14 14 14 12 8 9 8 8 7 6 7 7 8 8 9 9 7 6 6 6 5 4 3 4 5 5 5 4
8 7 8 8 8 8 9 10 11 12 13 13 9 11 17 12 11 11 11 10 9 7 7 7 6 7 9 10 10 9 8 7 7 6 6 6 5 5 5 4 5 5 4
8 9 9 9 9 10 11 11 12 13 13 12 12 12 12 9 10 11 11 9 8 7 7 6 6 6 7 8 8 9 9 9 9 8 8 8 7 7 5 5 6 6 5
9 10 10 9 9 10 12 13 13 13 13 12 12 12 13 12 10 10 9 8 8 7 7 7 7 10 12 9 7 9 10 11 12 10 13 12 10 8 7 6 6 7 6
7 8 9 9 8 10 12 13 13 13 13 12 12 12 12 11 10 10 9 9 9 9 9 9 8 10 12 13 9 10 15 17 17 16 13 12 12 11 9 8 7 6 5
6 7 8 6 6 9 11 11 12 12 12 12 12 11 12 12 11 10 9 8 8 8 9 8 11 12 11 12 14 15 16 17 20 21 16 11 12 11 10 7 9 8 8
Wind_Direction
191 185 179 182 184 229 294 308 314 321 336 348 353 358 355 346 336 187 201 177 143 111 96 127 126 119 122 129 122 125 126 120 118 36 17 13 26 20 14 23 30 25 7
205 194 195 191 193 224 265 288 305 318 330 344 353 1 11 28 42 58 67 78 89 97 103 103 107 110 99 91 89 90 95 105 113 91 43 23 19 12 21 31 29 28 13
206 196 193 194 203 225 249 273 296 310 326 343 355 6 20 37 49 60 80 90 94 97 102 104 105 103 92 87 84 84 81 82 93 99 69 15 13 7 6 18 36 24 23
204 195 193 199 203 218 238 257 277 298 320 337 350 9 24 36 62 81 97 99 95 91 89 88 86 92 96 92 85 84 90 91 87 89 72 27 15 347 19 17 13 7 16
204 199 200 199 200 208 225 241 257 280 303 329 26 40 37 40 79 105 109 105 98 89 79 73 69 77 83 84 87 84 89 93 87 80 64 38 19 14 2 351 6 350 348
206 206 198 194 201 207 213 219 234 263 286 122 114 86 57 53 99 114 118 107 103 95 87 75 67 63 78 78 78 76 84 95 96 88 73 57 24 5 354 8 14 26 357
211 204 193 194 203 207 201 197 200 200 159 139 135 118 91 75 110 121 117 113 107 97 89 82 76 66 72 79 72 66 61 64 81 123 96 68 45 355 12 29 28 33 338
225 204 194 193 202 202 194 191 181 166 158 152 155 130 95 77 99 111 107 100 97 95 99 101 92 72 73 83 72 57 43 34 37 64 108 123 141 104 100 102 97 18 317
286 241 206 195 198 198 195 191 177 162 164 163 161 140 111 93 102 111 109 102 99 89 88 91 95 85 80 81 76 64 47 29 40 60 71 79 81 72 70 58 41 46 10
339 316 269 206 196 199 194 184 169 162 169 163 162 154 135 121 113 119 120 118 109 97 77 72 82 91 84 82 80 74 61 35 43 54 49 39 39 42 51 62 75 77 52
340 340 318 254 207 199 186 175 165 161 160 165 161 160 152 142 127 137 142 138 136 126 113 97 88 98 95 90 86 80 82 83 65 64 54 39 29 27 27 32 45 90 88
343 344 330 292 233 204 182 176 169 166 167 167 160 160 162 153 145 158 164 159 151 141 144 146 136 120 111 101 88 91 89 82 72 64 55 39 28 19 16 31 38 48 63
325 326 321 310 261 211 186 179 171 172 172 170 166 169 175 174 174 169 167 162 155 142 153 161 160 137 109 87 83 92 90 86 79 72 58 32 3 5 25 33 27 30 35
288 296 301 307 279 229 196 182 179 179 177 174 173 175 172 169 168 151 142 149 148 133 138 163 163 135 96 88 80 82 88 104 106 99 80 34 25 35 37 33 33 26 35
261 276 280 285 279 240 208 194 188 189 185 178 181 178 176 181 188 169 156 156 158 154 139 116 104 104 105 91 91 94 94 96 93 87 75 55 41 45 30 22 41 49 51
244 265 272 277 280 249 216 202 202 189 186 182 178 176 188 182 170 171 167 167 166 155 135 137 163 182 172 158 153 144 120 113 118 113 94 79 65 59 35 15 39 54 48
235 255 269 269 278 256 217 194 186 191 191 188 182 179 178 170 170 176 178 176 171 156 142 158 176 196 193 168 162 160 156 147 139 128 115 104 90 81 64 29 25 41 41
238 255 268 264 274 261 221 196 185 179 178 182 190 188 181 172 173 174 165 148 159 169 169 171 185 195 178 162 164 164 158 150 140 144 149 140 123 120 97 47 34 47 56
238 246 259 263 268 259 224 192 181 180 180 169 148 169 185 177 169 164 156 159 172 181 183 181 183 182 175 166 166 167 165 165 158 156 173 183 168 148 141 115 91 84 94
238 249 256 260 263 249 216 187 176 171 165 165 170 163 149 142 159 173 187 180 175 182 183 186 188 182 173 169 167 170 172 172 165 162 180 196 194 168 156 143 128 122 122
235 249 259 262 257 241 210 187 175 170 167 171 175 173 167 174 182 186 189 186 185 186 183 184 187 183 177 174 174 178 181 186 183 175 181 191 187 174 163 148 141 144 145
232 240 248 253 256 237 205 187 175 171 171 169 166 169 173 173 177 183 190 195 193 186 178 176 184 186 183 182 181 182 186 193 194 186 183 181 180 180 170 151 146 155 154
234 241 249 251 249 223 198 183 175 171 170 169 164 161 175 185 181 187 192 192 189 188 182 178 185 193 193 189 182 181 188 198 198 186 178 175 176 180 176 167 164 166 176
232 240 247 251 238 207 185 175 172 170 169 168 167 170 180 189 187 190 190 188 189 192 189 186 191 200 200 198 195 196 199 201 191 183 176 176 179 182 180 173 168 174 184
229 236 249 247 218 186 172 169 169 167 168 171 174 177 181 187 188 190 192 193 191 193 196 195 196 203 205 202 199 208 212 202 189 182 179 179 182 184 182 175 169 168 177
228 246 247 222 187 167 163 163 165 164 166 173 179 180 181 186 192 193 191 189 191 194 196 198 200 200 200 202 204 204 200 196 193 188 185 185 186 188 184 178 173 172 170
Height
1478 1476 1474 1472 1469 1467 1464 1460 1457 1454 1450 1446 1442 1440 1438 1437 1437 1436 1436 1437 1438 1439 1441 1443 1446 1450 1453 1456 1458 1460 1462 1463 1464 1466 1466 1467 1466 1465 1464 1462 1460 1458 1457
1475 1473 1471 1469 1467 1465 1463 1460 1457 1455 1451 1448 1445 1442 1439 1438 1437 1436 1435 1437 1438 1440 1442 1444 1447 1450 1453 1456 1458 1460 1461 1463 1464 1465 1466 1466 1466 1465 1464 1462 1460 1458 1456
1472 1470 1468 1467 1465 1463 1461 1459 1457 1455 1453 1450 1447 1444 1441 1440 1438 1437 1437 1438 1439 1442 1444 1446 1449 1452 1454 1456 1458 1460 1461 1463 1465 1465 1467 1467 1466 1465 1464 1463 1462 1460 1457
1468 1466 1465 1464 1463 1461 1459 1458 1457 1456 1454 1451 1449 1446 1444 1442 1441 1440 1440 1441 1443 1445 1447 1449 1452 1454 1455 1456 1458 1460 1462 1464 1465 1466 1467 1467 1466 1466 1465 1464 1462 1461 1459
1463 1462 1461 1460 1459 1458 1457 1457 1456 1456 1454 1453 1451 1449 1447 1446 1445 1444 1444 1445 1447 1449 1450 1452 1455 1456 1457 1458 1459 1461 1463 1464 1465 1466 1467 1467 1467 1467 1466 1465 1464 1462 1461
1459 1458 1457 1457 1456 1455 1454 1454 1455 1455 1455 1454 1453 1451 1450 1449 1449 1449 1449 1450 1452 1453 1454 1457 1459 1460 1460 1460 1461 1462 1464 1465 1466 1467 1467 1468 1468 1468 1468 1467 1465 1464 1463
1454 1453 1452 1453 1452 1451 1450 1451 1452 1453 1454 1454 1454 1453 1453 1453 1453 1454 1454 1455 1455 1457 1458 1460 1461 1461 1462 1462 1463 1464 1465 1466 1467 1467 1468 1469 1469 1469 1469 1468 1467 1466 1465
1450 1448 1447 1447 1447 1447 1446 1447 1448 1450 1452 1454 1454 1454 1454 1455 1456 1458 1458 1458 1459 1460 1461 1462 1462 1463 1464 1464 1464 1465 1466 1467 1468 1468 1469 1470 1470 1470 1470 1469 1468 1467 1466
1445 1444 1442 1442 1442 1442 1442 1443 1444 1447 1450 1452 1454 1454 1455 1456 1458 1459 1461 1461 1461 1461 1462 1462 1463 1464 1464 1464 1465 1466 1467 1468 1468 1469 1470 1470 1471 1470 1470 1469 1467 1466 1464
1439 1437 1437 1438 1437 1437 1438 1439 1441 1444 1448 1450 1452 1454 1455 1456 1458 1460 1461 1462 1463 1463 1463 1464 1465 1465 1465 1465 1466 1467 1468 1469 1470 1471 1471 1471 1471 1470 1469 1467 1466 1465 1463
1433 1429 1429 1431 1432 1432 1433 1435 1438 1442 1445 1448 1450 1453 1454 1456 1457 1459 1461 1462 1463 1464 1465 1465 1466 1466 1466 1466 1467 1468 1470 1471 1472 1472 1472 1472 1471 1470 1469 1468 1467 1466 1464
1427 1423 1422 1423 1425 1426 1428 1430 1433 1438 1441 1445 1448 1450 1452 1454 1456 1458 1460 1462 1463 1464 1465 1466 1466 1467 1467 1468 1469 1470 1471 1472 1472 1472 1472 1472 1471 1470 1470 1469 1468 1467 1465
1421 1417 1415 1414 1416 1419 1421 1423 1427 1432 1436 1440 1444 1447 1449 1451 1453 1456 1459 1461 1463 1464 1465 1466 1467 1468 1469 1470 1470 1471 1471 1471 1471 1471 1471 1472 1472 1471 1471 1471 1470 1468 1467
1414 1411 1408 1407 1407 1410 1413 1416 1420 1425 1430 1434 1438 1442 1445 1448 1450 1453 1456 1459 1462 1464 1465 1466 1468 1469 1470 1471 1471 1471 1471 1471 1472 1472 1472 1472 1472 1472 1471 1471 1470 1469 1467
1407 1404 1402 1401 1399 1400 1404 1408 1412 1417 1422 1427 1433 1437 1441 1443 1446 1450 1453 1457 1459 1462 1463 1465 1467 1469 1470 1471 1471 1472 1472 1472 1472 1472 1472 1472 1473 1473 1472 1472 1471 1470 1468
1399 1397 1395 1392 1391 1391 1394 1400 1405 1411 1416 1422 1428 1433 1437 1440 1444 1447 1451 1454 1457 1460 1462 1463 1466 1468 1470 1471 1471 1472 1472 1472 1472 1472 1472 1473 1473 1474 1474 1473 1472 1471 1469
1391 1389 1387 1385 1382 1382 1385 1390 1396 1403 1409 1416 1422 1428 1432 1437 1441 1444 1448 1452 1455 1458 1460 1462 1465 1467 1468 1469 1470 1471 1472 1472 1472 1472 1472 1473 1474 1475 1475 1474 1473 1472 1470
1383 1381 1379 1376 1374 1373 1376 1382 1388 1394 1400 1406 1414 1421 1427 1432 1437 1441 1445 1449 1451 1455 1457 1460 1463 1464 1465 1467 1468 1469 1470 1471 1472 1473 1473 1473 1474 1475 1475 1474 1473 1472 1471
1374 1373 1371 1368 1366 1366 1369 1374 1380 1387 1393 1399 1407 1414 1421 1427 1432 1437 1441 1444 1447 1450 1453 1456 1459 1461 1463 1464 1466 1467 1469 1470 1471 1472 1472 1473 1473 1473 1474 1473 1472 1472 1471
1366 1365 1363 1361 1360 1360 1362 1368 1374 1380 1386 1393 1400 1407 1414 1420 1425 1430 1435 1439 1443 1446 1449 1452 1455 1458 1460 1462 1463 1465 1467 1469 1470 1470 1471 1472 1472 1472 1472 1472 1471 1471 1470
1357 1356 1355 1353 1352 1353 1357 1362 1368 1375 1381 1389 1396 1402 1408 1414 1419 1425 1429 1434 1438 1441 1444 1447 1451 1454 1457 1459 1461 1463 1465 1467 1468 1469 1469 1470 1471 1471 1470 1470 1470 1469 1469
1348 1347 1346 1345 1345 1347 1352 1358 1364 1371 1378 1385 1392 1399 1405 1410 1415 1420 1425 1430 1434 1437 1440 1444 1447 1450 1453 1456 1458 1460 1462 1464 1465 1466 1467 1468 1469 1469 1469 1468 1467 1467 1467
1339 1339 1339 1338 1339 1342 1347 1354 1361 1368 1375 1382 1389 1395 1400 1406 1411 1416 1421 1425 1429 1433 1436 1440 1443 1446 1450 1452 1455 1457 1459 1460 1462 1464 1464 1465 1465 1466 1466 1465 1464 1464 1465
1332 1332 1331 1331 1333 1336 1343 1350 1358 1365 1373 1379 1386 1391 1397 1402 1406 1411 1416 1420 1425 1428 1432 1436 1439 1443 1446 1449 1451 1453 1455 1457 1458 1460 1461 1461 1462 1462 1462 1461 1461 1461 1461
1325 1324 1324 1324 1327 1333 1341 1348 1356 1363 1370 1376 1383 1388 1393 1398 1402 1406 1411 1416 1420 1423 1427 1431 1435 1439 1442 1445 1447 1449 1451 1453 1454 1455 1456 1457 1457 1458 1457 1457 1457 1457 1457
1319 1318 1318 1320 1325 1332 1340 1347 1354 1361 1367 1374 1380 1385 1389 1394 1398 1403 1407 1411 1415 1418 1422 1427 1430 1434 1437 1440 1442 1445 1446 1448 1449 1451 1452 1452 1452 1452 1452 1452 1452 1452 1453